When you browse on this site, cookies collect data to enhance your experience and personalize the content and advertising you see.
Visit our Privacy Policy to learn more. By continuing to use the site, you agree to this use of cookies and data.
  • în România
  • Lista ţărilor
  • Pe 7 zile
  • Temperatura apei
  • Hartă satelitară
  • Meteo pe hartă
  • Widget-uri
  • user-avatar
    Intrare

    Meteo pe oră la Nashua

    Astăzi, 21 Aprilie, Duminică

    Timp Temperatura Precipitaţii Vânt Presiune Umiditate
    00:00 +18°C° 0.2 mm 3 m/s 757 mmHg 92%
    01:00 +18°C° 0.2 mm 2 m/s 757 mmHg 92%
    02:00 +17°C° 0 mm 2 m/s 757 mmHg 92%
    03:00 +16°C° 0 mm 1 m/s 757 mmHg 91%
    04:00 +16°C° 0 mm 1 m/s 757 mmHg 91%
    05:00 +16°C° 0 mm 1 m/s 757 mmHg 90%
    06:00 +16°C° 0 mm 1 m/s 758 mmHg 89%
    07:00 +16°C° 0 mm 1 m/s 758 mmHg 88%
    08:00 +18°C° 0 mm 1 m/s 758 mmHg 84%
    09:00 +18°C° 0 mm 1 m/s 758 mmHg 80%
    10:00 +19°C° 0 mm 1 m/s 759 mmHg 76%
    11:00 +19°C° 0 mm 1 m/s 759 mmHg 78%
    12:00 +18°C° 0 mm 1 m/s 759 mmHg 80%
    13:00 +18°C° 0 mm 1 m/s 759 mmHg 82%
    14:00 +16°C° 0.1 mm 1 m/s 759 mmHg 84%
    15:00 +16°C° 0.1 mm 1 m/s 758 mmHg 86%
    16:00 +14°C° 0.1 mm 0 m/s 758 mmHg 88%
    17:00 +14°C° 0 mm 0 m/s 759 mmHg 90%
    18:00 +13°C° 0 mm 0 m/s 759 mmHg 92%
    19:00 +13°C° 0 mm 0 m/s 759 mmHg 94%
    20:00 +13°C° 0.1 mm 0 m/s 759 mmHg 94%
    21:00 +13°C° 0.1 mm 0 m/s 760 mmHg 94%
    22:00 +13°C° 0.1 mm 0 m/s 760 mmHg 93%
    23:00 +13°C° 0 mm 0 m/s 760 mmHg 94%

    Mâine, 22 Aprilie, Luni

    Timp Temperatura Precipitaţii Vânt Presiune Umiditate
    00:00 +13°C° 0 mm 0 m/s 760 mmHg 95%
    01:00 +13°C° 0 mm 0 m/s 760 mmHg 95%
    02:00 +12°C° 0 mm 0 m/s 759 mmHg 96%
    03:00 +11°C° 0 mm 0 m/s 759 mmHg 96%
    04:00 +10°C° 0 mm 0 m/s 759 mmHg 96%
    05:00 +12°C° 0 mm 0 m/s 759 mmHg 92%
    06:00 +13°C° 0 mm 0 m/s 760 mmHg 89%
    07:00 +14°C° 0 mm 0 m/s 760 mmHg 85%
    08:00 +16°C° 0 mm 0 m/s 760 mmHg 75%
    09:00 +19°C° 0 mm 0 m/s 759 mmHg 64%
    10:00 +23°C° 0 mm 1 m/s 759 mmHg 54%
    11:00 +24°C° 0 mm 1 m/s 759 mmHg 50%
    12:00 +24°C° 0 mm 1 m/s 759 mmHg 45%
    13:00 +25°C° 0 mm 2 m/s 759 mmHg 41%
    14:00 +24°C° 0 mm 2 m/s 759 mmHg 46%
    15:00 +22°C° 0 mm 3 m/s 758 mmHg 51%
    16:00 +21°C° 0 mm 3 m/s 758 mmHg 56%
    17:00 +19°C° 0.1 mm 3 m/s 758 mmHg 65%
    18:00 +17°C° 0.1 mm 3 m/s 758 mmHg 74%
    19:00 +16°C° 0.1 mm 3 m/s 759 mmHg 83%
    20:00 +14°C° 0.1 mm 3 m/s 759 mmHg 85%
    21:00 +13°C° 0.1 mm 3 m/s 759 mmHg 88%
    22:00 +13°C° 0.1 mm 3 m/s 759 mmHg 90%
    23:00 +12°C° 0.2 mm 3 m/s 758 mmHg 90%

    Poimâine, 23 Aprilie, Marţi

    Timp Temperatura Precipitaţii Vânt Presiune Umiditate
    00:00 +13°C° 0.2 mm 2 m/s 758 mmHg 91%
    01:00 +12°C° 0.2 mm 2 m/s 758 mmHg 92%
    02:00 +12°C° 0.1 mm 2 m/s 758 mmHg 91%
    03:00 +12°C° 0.1 mm 2 m/s 758 mmHg 90%
    04:00 +10°C° 0.1 mm 3 m/s 758 mmHg 90%
    05:00 +12°C° 0 mm 2 m/s 758 mmHg 88%
    06:00 +12°C° 0 mm 2 m/s 758 mmHg 86%
    07:00 +13°C° 0 mm 2 m/s 759 mmHg 84%
    08:00 +14°C° 0 mm 2 m/s 758 mmHg 78%
    09:00 +15°C° 0 mm 2 m/s 758 mmHg 72%
    10:00 +17°C° 0 mm 2 m/s 758 mmHg 66%
    11:00 +17°C° 0 mm 2 m/s 758 mmHg 64%
    12:00 +19°C° 0 mm 1 m/s 758 mmHg 63%
    13:00 +20°C° 0 mm 1 m/s 757 mmHg 61%
    14:00 +19°C° 0 mm 1 m/s 757 mmHg 62%
    15:00 +18°C° 0 mm 2 m/s 757 mmHg 64%
    16:00 +17°C° 0 mm 2 m/s 756 mmHg 65%
    17:00 +16°C° 0 mm 3 m/s 756 mmHg 68%
    18:00 +13°C° 0 mm 3 m/s 756 mmHg 72%
    19:00 +11°C° 0 mm 3 m/s 756 mmHg 75%
    20:00 +11°C° 0 mm 3 m/s 756 mmHg 77%
    21:00 +10°C° 0 mm 3 m/s 756 mmHg 79%
    22:00 +9°C° 0 mm 3 m/s 756 mmHg 82%
    23:00 +10°C° 0.1 mm 3 m/s 755 mmHg 84%

    24 Aprilie, Miercuri

    Timp Temperatura Precipitaţii Vânt Presiune Umiditate
    00:00 +10°C° 0.1 mm 3 m/s 754 mmHg 86%
    01:00 +10°C° 0.1 mm 3 m/s 754 mmHg 88%
    02:00 +11°C° 1 mm 3 m/s 753 mmHg 90%
    03:00 +11°C° 1 mm 3 m/s 752 mmHg 92%
    04:00 +12°C° 1 mm 3 m/s 751 mmHg 94%
    05:00 +13°C° 0 mm 3 m/s 750 mmHg 92%
    06:00 +14°C° 0 mm 4 m/s 750 mmHg 90%
    07:00 +15°C° 0 mm 4 m/s 750 mmHg 88%
    08:00 +15°C° 0 mm 4 m/s 750 mmHg 76%
    09:00 +16°C° 0 mm 5 m/s 750 mmHg 65%
    10:00 +16°C° 0 mm 5 m/s 750 mmHg 53%
    11:00 +16°C° 0 mm 6 m/s 750 mmHg 50%
    12:00 +17°C° 0 mm 6 m/s 750 mmHg 46%
    13:00 +17°C° 0 mm 6 m/s 750 mmHg 43%
    14:00 +17°C° 0 mm 6 m/s 750 mmHg 44%
    15:00 +16°C° 0 mm 6 m/s 751 mmHg 45%
    16:00 +15°C° 0 mm 6 m/s 751 mmHg 46%
    17:00 +14°C° 0 mm 5 m/s 752 mmHg 51%
    18:00 +12°C° 0 mm 4 m/s 752 mmHg 56%
    19:00 +10°C° 0 mm 3 m/s 753 mmHg 60%
    20:00 +10°C° 0 mm 4 m/s 753 mmHg 61%
    21:00 +8°C° 0 mm 4 m/s 753 mmHg 62%
    22:00 +7°C° 0 mm 5 m/s 754 mmHg 64%
    23:00 +7°C° 0 mm 5 m/s 754 mmHg 65%

    25 Aprilie, Joi

    Timp Temperatura Precipitaţii Vânt Presiune Umiditate
    00:00 +6°C° 0 mm 5 m/s 754 mmHg 66%
    01:00 +6°C° 0 mm 5 m/s 754 mmHg 67%
    02:00 +5°C° 0 mm 5 m/s 755 mmHg 68%
    03:00 +5°C° 0 mm 5 m/s 755 mmHg 69%
    04:00 +5°C° 0 mm 5 m/s 756 mmHg 70%
    05:00 +5°C° 0 mm 5 m/s 756 mmHg 67%
    06:00 +6°C° 0 mm 5 m/s 757 mmHg 64%
    07:00 +7°C° 0 mm 5 m/s 757 mmHg 61%
    08:00 +10°C° 0 mm 4 m/s 757 mmHg 56%
    09:00 +11°C° 0 mm 3 m/s 758 mmHg 51%
    10:00 +13°C° 0 mm 3 m/s 758 mmHg 46%
    11:00 +16°C° 0 mm 2 m/s 758 mmHg 42%
    12:00 +17°C° 0 mm 2 m/s 758 mmHg 39%
    13:00 +19°C° 0 mm 2 m/s 757 mmHg 36%
    14:00 +18°C° 0 mm 2 m/s 757 mmHg 37%
    15:00 +18°C° 0 mm 2 m/s 757 mmHg 38%
    16:00 +18°C° 0 mm 2 m/s 757 mmHg 39%
    17:00 +15°C° 0 mm 2 m/s 758 mmHg 46%
    18:00 +13°C° 0 mm 2 m/s 758 mmHg 53%
    19:00 +10°C° 0 mm 2 m/s 759 mmHg 60%
    20:00 +9°C° 0 mm 2 m/s 759 mmHg 65%
    21:00 +8°C° 0 mm 2 m/s 760 mmHg 69%
    22:00 +8°C° 0 mm 1 m/s 760 mmHg 74%
    23:00 +8°C° 0 mm 1 m/s 760 mmHg 76%

    26 Aprilie, Vineri

    Timp Temperatura Precipitaţii Vânt Presiune Umiditate
    00:00 +7°C° 0 mm 1 m/s 760 mmHg 77%
    01:00 +7°C° 0 mm 1 m/s 760 mmHg 79%
    02:00 +7°C° 0 mm 1 m/s 760 mmHg 80%
    03:00 +6°C° 0 mm 1 m/s 760 mmHg 81%
    04:00 +6°C° 0 mm 1 m/s 760 mmHg 82%
    05:00 +6°C° 0 mm 2 m/s 760 mmHg 76%
    06:00 +7°C° 0 mm 2 m/s 760 mmHg 71%
    07:00 +8°C° 0 mm 3 m/s 760 mmHg 65%
    08:00 +9°C° 0 mm 3 m/s 760 mmHg 62%
    09:00 +10°C° 0 mm 3 m/s 760 mmHg 59%
    10:00 +11°C° 0 mm 3 m/s 760 mmHg 55%
    11:00 +11°C° 0.3 mm 3 m/s 759 mmHg 62%
    12:00 +10°C° 0.3 mm 3 m/s 759 mmHg 68%
    13:00 +9°C° 0.3 mm 3 m/s 759 mmHg 75%
    14:00 +8°C° 1.1 mm 3 m/s 759 mmHg 80%
    15:00 +8°C° 1.1 mm 2 m/s 758 mmHg 84%
    16:00 +7°C° 1.1 mm 2 m/s 758 mmHg 89%
    17:00 +7°C° 0.8 mm 2 m/s 758 mmHg 90%
    18:00 +6°C° 0.8 mm 2 m/s 758 mmHg 92%
    19:00 +6°C° 0.8 mm 2 m/s 758 mmHg 94%
    20:00 +7°C° 0.3 mm 1 m/s 758 mmHg 94%
    21:00 +6°C° 0.3 mm 1 m/s 758 mmHg 94%
    22:00 +6°C° 0.3 mm 1 m/s 759 mmHg 94%
    23:00 +6°C° 0.1 mm 1 m/s 758 mmHg 94%
    Arată mai mult